Franklin, NC

11:41 PM EDT on April 30, 2017 (GMT -0400)
Franklin

Weather History for K1A5 - April, 2014

Change the Weather History Date:

Tuesday, April 15, 2014

  Actual Average (KTOC) Record (KTOC)
Temperature  
Mean Temperature 45 °F -  
Max Temperature 57 °F 72 °F 82 °F (2017)
Min Temperature 33 °F 49 °F 42 °F (2014)
Degree Days  
Heating Degree Days 20    
Moisture  
Dew Point 40 °F    
Average Humidity 80    
Maximum Humidity 100    
Minimum Humidity 54    
Precipitation  
Precipitation 0.30 in - - ()
Sea Level Pressure  
Sea Level Pressure 29.86 in    
Wind  
Wind Speed 5 mph (NW)    
Max Wind Speed 18 mph    
Max Gust Speed 32 mph    
Visibility 8 miles    
Events Rain    
Averages and records for this station are not official NWS values.
T = Trace of Precipitation, MM = Missing Value Source: NWS Daily Summary

Daily Weather History Graph

Daily Weather History Graph

Search for Another Location

Airport or City:

Trip Planner

Search our weather history database for the weather conditions in past years. The results will help you decide how hot, cold, wet, or windy it might be!

Date:

Astronomy

Apr. 15, 2014 Rise Set
Actual Time 7:01 AM EDT 8:06 PM EDT
Civil Twilight 6:35 AM EDT 8:32 PM EDT
Nautical Twilight 6:04 AM EDT 9:03 PM EDT
Astronomical Twilight 5:32 AM EDT 9:36 PM EDT
Moon 8:44 PM EDT (4/15) 7:09 AM EDT (4/15)
Length of Visible Light 13h 57m
Length of Day
13h 04m
Full, 100% of the Moon is Illuminated
Apr 15
Full
Apr 22
Last Quarter
Apr 29
New
May 6
First Quarter
May 14
Full

Hourly Weather History & Observations

Time (EDT) Temp. Windchill Dew Point Humidity Pressure Visibility Wind Dir Wind Speed Gust Speed Precip Events Conditions
12:15 AM 57.6 °F - 56.7 °F 97% 29.84 in 10.0 mi Calm Calm - N/A Rain Rain
12:35 AM 57.4 °F - 56.8 °F 98% 29.83 in 7.0 mi Calm Calm - N/A Rain Rain
1:15 AM 57.2 °F - 57.2 °F 100% 29.83 in 5.0 mi Calm Calm - 0.01 in Rain Light Rain
1:35 AM 56.7 °F - 56.7 °F 100% 29.82 in 3.0 mi Calm Calm - 0.07 in Rain Heavy Rain
1:55 AM 56.7 °F - 56.7 °F 100% 29.81 in 5.0 mi Calm Calm - 0.10 in Rain Rain
2:15 AM 56.3 °F - 56.3 °F 100% 29.80 in 4.0 mi Calm Calm - 0.02 in Rain Rain
2:35 AM 56.5 °F - 56.5 °F 100% 29.80 in 3.0 mi Calm Calm - 0.07 in Rain Rain
2:55 AM 56.3 °F - 56.3 °F 100% 29.79 in 5.0 mi Calm Calm - 0.08 in Rain Light Rain
3:15 AM 56.3 °F - 56.3 °F 100% 29.79 in 4.0 mi Calm Calm - 0.01 in Rain Rain
3:35 AM 56.1 °F - 56.1 °F 100% 29.78 in 4.0 mi Calm Calm - 0.02 in Rain Light Rain
3:55 AM 55.9 °F - 55.9 °F 100% 29.79 in 4.0 mi Calm Calm - 0.03 in Rain Rain
4:15 AM 55.6 °F - 55.6 °F 100% 29.79 in 4.0 mi Calm Calm - 0.01 in Rain Light Rain
4:35 AM 55.4 °F - 55.4 °F 100% 29.79 in 4.0 mi Calm Calm - 0.01 in Rain Rain
4:55 AM 54.7 °F - 54.7 °F 100% 29.77 in 10.0 mi Calm Calm - 0.01 in   Drizzle
5:15 AM 55.2 °F - 54.7 °F 98% 29.75 in 10.0 mi ESE 4.6 mph - N/A Rain Light Rain
5:35 AM 56.1 °F - 56.1 °F 100% 29.70 in 10.0 mi NE 4.6 mph - N/A Rain Light Rain
5:55 AM 56.5 °F - 54.1 °F 92% 29.73 in 10.0 mi Calm Calm - N/A   Overcast
6:15 AM 55.6 °F - 54.5 °F 96% 29.74 in 10.0 mi SE 4.6 mph - N/A   Overcast
6:35 AM 55.0 °F - 55.0 °F 100% 29.74 in 10.0 mi Calm Calm - N/A   Overcast
6:55 AM 54.7 °F - 54.7 °F 100% 29.74 in 10.0 mi Calm Calm - 0.01 in   Overcast
7:15 AM 54.5 °F - 54.5 °F 100% 29.73 in 10.0 mi Calm Calm - N/A   Overcast
7:35 AM 54.5 °F - 54.5 °F 100% 29.73 in 10.0 mi Calm Calm - N/A   Overcast
7:55 AM 54.9 °F - 54.9 °F 100% 29.72 in 10.0 mi Calm Calm - N/A   Overcast
8:15 AM 55.4 °F - 55.4 °F 100% 29.72 in 10.0 mi Calm Calm - N/A   Overcast
8:35 AM 55.6 °F - 55.6 °F 100% 29.71 in 7.0 mi Calm Calm - N/A Rain Rain
8:55 AM 55.8 °F - 55.8 °F 100% 29.69 in 7.0 mi Calm Calm - N/A Rain Rain
9:15 AM 56.1 °F - 55.6 °F 98% 29.69 in 3.0 mi Calm Calm - 0.01 in   Heavy Drizzle
9:35 AM 55.9 °F - 55.8 °F 99% 29.70 in 4.0 mi NW 12.7 mph 18.4 mph 0.03 in Rain Rain
9:55 AM 48.4 °F - 45.5 °F 90% 29.72 in 3.0 mi NW 16.1 mph 25.3 mph 0.03 in Rain Light Rain
10:15 AM 46.2 °F 40.1 °F 43.2 °F 89% 29.75 in 2.0 mi NW 13.8 mph 23.0 mph 0.01 in Rain Rain
10:35 AM 44.1 °F 36.8 °F 41.4 °F 90% 29.78 in 1.8 mi NW 16.1 mph 25.3 mph 0.03 in Rain Rain
10:55 AM 43.3 °F 36.5 °F 40.1 °F 88% 29.80 in 7.0 mi NNW 13.8 mph 23.0 mph 0.03 in   Light Drizzle
11:15 AM 42.3 °F 37.9 °F 37.6 °F 83% 29.81 in 10.0 mi NNW 6.9 mph 20.7 mph N/A   Overcast
11:35 AM 42.1 °F 37.1 °F 37.0 °F 82% 29.82 in 10.0 mi NW 8.1 mph 18.4 mph N/A   Overcast
11:55 AM 42.4 °F 37.5 °F 36.1 °F 78% 29.84 in 10.0 mi North 8.1 mph - N/A   Overcast
12:35 PM 42.6 °F 35.2 °F 35.8 °F 77% 29.86 in 10.0 mi North 15.0 mph 20.7 mph N/A Rain Light Rain
12:55 PM 42.4 °F 36.5 °F 36.5 °F 79% 29.87 in 10.0 mi North 10.4 mph 17.3 mph 0.01 in   Overcast
1:35 PM 43.0 °F 36.0 °F 35.2 °F 74% 29.86 in 10.0 mi NW 13.8 mph 17.3 mph N/A   Overcast
2:15 PM 44.6 °F 38.8 °F 34.9 °F 69% 29.85 in 10.0 mi WNW 11.5 mph 20.7 mph N/A   Overcast
2:35 PM 45.5 °F 41.3 °F 35.1 °F 67% 29.86 in 10.0 mi WNW 8.1 mph 16.1 mph N/A   Overcast
2:55 PM 45.9 °F 40.8 °F 34.0 °F 63% 29.86 in 10.0 mi NW 10.4 mph 16.1 mph N/A   Overcast
3:15 PM 45.9 °F 40.4 °F 33.4 °F 62% 29.86 in 10.0 mi NNW 11.5 mph 26.5 mph N/A   Overcast
3:35 PM 44.4 °F 37.5 °F 31.3 °F 60% 29.87 in 10.0 mi NW 15.0 mph 24.2 mph N/A   Overcast
3:55 PM 43.9 °F 37.5 °F 30.4 °F 59% 29.87 in 10.0 mi NW 12.7 mph 25.3 mph N/A   Mostly Cloudy
4:15 PM 43.3 °F 35.5 °F 30.2 °F 60% 29.88 in 10.0 mi NW 17.3 mph 26.5 mph N/A   Overcast
4:35 PM 42.4 °F 35.3 °F 30.0 °F 61% 29.89 in 10.0 mi WNW 13.8 mph 24.2 mph N/A   Overcast
4:55 PM 42.8 °F 36.2 °F 30.0 °F 61% 29.89 in 10.0 mi WNW 12.7 mph 21.9 mph N/A   Overcast
5:15 PM 43.3 °F 37.2 °F 29.7 °F 59% 29.90 in 10.0 mi WNW 11.5 mph 24.2 mph N/A   Overcast
5:35 PM 42.8 °F 35.8 °F 29.3 °F 59% 29.92 in 10.0 mi NW 13.8 mph 19.6 mph N/A   Overcast
5:55 PM 41.0 °F 34.7 °F 28.0 °F 60% 29.94 in 10.0 mi NW 10.4 mph 26.5 mph N/A   Overcast
6:15 PM 40.6 °F 32.0 °F 28.4 °F 62% 29.96 in 10.0 mi NW 17.3 mph 24.2 mph N/A   Mostly Cloudy
6:35 PM 38.7 °F 30.5 °F 27.5 °F 64% 29.98 in 10.0 mi WNW 13.8 mph 32.2 mph N/A   Overcast
6:55 PM 36.7 °F 26.6 °F 27.1 °F 68% 30.00 in 10.0 mi WNW 18.4 mph 31.1 mph N/A   Overcast
7:15 PM 36.7 °F 28.9 °F 25.3 °F 64% 30.01 in 10.0 mi West 11.5 mph 28.8 mph N/A   Overcast
7:35 PM 36.1 °F 27.7 °F 23.0 °F 59% 30.02 in 10.0 mi WNW 12.7 mph 20.7 mph N/A   Overcast
7:55 PM 36.0 °F 28.0 °F 22.8 °F 59% 30.03 in 10.0 mi North 11.5 mph 26.5 mph N/A   Overcast
8:15 PM 35.8 °F 26.1 °F 21.7 °F 57% 30.04 in 10.0 mi North 16.1 mph 25.3 mph N/A   Overcast
8:35 PM 36.0 °F 27.5 °F 22.8 °F 59% 30.05 in 10.0 mi NNW 12.7 mph 18.4 mph N/A   Overcast
8:55 PM 36.0 °F 27.5 °F 22.5 °F 58% 30.05 in 10.0 mi NNW 12.7 mph 19.6 mph N/A   Overcast
9:15 PM 35.6 °F 28.6 °F 21.7 °F 57% 30.06 in 10.0 mi NW 9.2 mph 19.6 mph N/A   Overcast
9:35 PM 35.4 °F 27.8 °F 20.7 °F 55% 30.06 in 10.0 mi NNW 10.4 mph 18.4 mph N/A   Overcast
9:55 PM 34.9 °F 26.2 °F 19.8 °F 54% 30.04 in 10.0 mi NNW 12.7 mph 21.9 mph N/A   Scattered Clouds
10:15 PM 34.5 °F 26.2 °F 19.9 °F 55% 30.05 in 10.0 mi NNW 11.5 mph 19.6 mph N/A   Clear
10:35 PM 34.7 °F 27.5 °F 20.1 °F 55% 30.05 in 10.0 mi NW 9.2 mph 16.1 mph N/A   Clear
10:55 PM 34.5 °F 30.4 °F 20.1 °F 56% 30.05 in 10.0 mi WNW 4.6 mph - N/A   Clear
11:15 PM 34.0 °F 29.8 °F 21.0 °F 59% 30.06 in 10.0 mi WNW 4.6 mph - N/A   Clear
11:35 PM 33.3 °F 30.2 °F 21.2 °F 61% 30.08 in 10.0 mi NNW 3.5 mph - N/A   Clear
11:55 PM 33.6 °F - 20.5 °F 59% 30.09 in 10.0 mi Calm Calm - N/A   Clear